Fort Drum, NY

9:24 PM EDT on April 24, 2018 (GMT -0400)
Wheeler-Sack Army Air Field

Weather History for KGTB - June, 2013

Change the Weather History Date:

Thursday, June 13, 2013

  Actual Average Record
Temperature  
Mean Temperature 57 °F -  
Max Temperature 63 °F 71 °F 88 °F (2008)
Min Temperature 50 °F 52 °F 44 °F (2002)
Degree Days  
Heating Degree Days 8    
Growing Degree Days 7 (Base 50)    
Moisture  
Dew Point 56 °F    
Average Humidity 89    
Maximum Humidity 100    
Minimum Humidity 72    
Precipitation  
Precipitation 0.05 in - - ()
Sea Level Pressure  
Sea Level Pressure 29.69 in    
Wind  
Wind Speed 10 mph (ESE)    
Max Wind Speed 16 mph    
Max Gust Speed 22 mph    
Visibility 10 miles    
Events Rain    
Averages and records for this station are not official NWS values.
T = Trace of Precipitation, MM = Missing Value Source: NWS Daily Summary

Daily Weather History Graph

Daily Weather History Graph

Search for Another Location

Airport or City:

Astronomy

Jun. 13, 2013 Rise Set
Actual Time 5:19 AM EDT 8:46 PM EDT
Civil Twilight 4:43 AM EDT 9:23 PM EDT
Nautical Twilight 3:55 AM EDT 10:10 PM EDT
Astronomical Twilight 2:54 AM EDT 11:11 PM EDT
Moon 10:01 AM EDT (6/13) 11:42 PM EDT (6/13)
Length of Visible Light 16h 40m
Length of Day
15h 27m
Waxing Crescent, 21% of the Moon is Illuminated
Jun 13
Waxing Crescent
Jun 16
First Quarter
Jun 23
Full
Jun 30
Last Quarter
Jul 8
New

Hourly Weather History & Observations

Time (EDT) Temp. Dew Point Humidity Pressure Visibility Wind Dir Wind Speed Gust Speed Precip Events Conditions
4:55 AM 53.6 °F 53.6 °F 100% 29.71 in 10.0 mi SE 11.5 mph - N/A   Mostly Cloudy
5:58 AM 55.6 °F 54.5 °F 96% 29.71 in 10.0 mi SE 11.5 mph - N/A   Mostly Cloudy
6:58 AM 57.4 °F 54.0 °F 88% 29.69 in 10.0 mi SE 10.4 mph - N/A   Overcast
7:58 AM 58.5 °F 54.1 °F 86% 29.68 in 10.0 mi SE 13.8 mph - N/A   Mostly Cloudy
8:07 AM 59.0 °F 53.6 °F 82% 29.68 in 10.0 mi SE 11.5 mph - N/A   Light Drizzle
8:17 AM 59.0 °F 55.4 °F 88% 29.68 in 10.0 mi SE 11.5 mph - N/A   Scattered Clouds
8:58 AM 58.3 °F 55.2 °F 90% 29.68 in 10.0 mi SE 11.5 mph - 0.00 in   Mostly Cloudy
9:58 AM 60.6 °F 55.8 °F 84% 29.67 in 10.0 mi ESE 12.7 mph - N/A   Partly Cloudy
10:58 AM 61.9 °F 56.5 °F 82% 29.66 in 10.0 mi ESE 10.4 mph - N/A   Clear
11:13 AM 62.6 °F 55.4 °F 77% 29.66 in 10.0 mi ESE 11.5 mph - N/A   Light Drizzle
11:40 AM 60.8 °F 57.2 °F 88% 29.67 in 10.0 mi SE 10.4 mph - N/A   Partly Cloudy
11:46 AM 60.8 °F 57.2 °F 88% 29.67 in 10.0 mi SE 12.7 mph 18.4 mph N/A   Light Drizzle
11:58 AM 61.3 °F 57.2 °F 86% 29.67 in 10.0 mi SE 13.8 mph 19.6 mph 0.00 in   Light Drizzle
12:58 PM 61.5 °F 56.3 °F 83% 29.66 in 10.0 mi ESE 16.1 mph 21.9 mph 0.00 in   Light Drizzle
1:00 PM 62.6 °F 55.4 °F 77% 29.66 in 10.0 mi ESE 15.0 mph 21.9 mph N/A   Clear
1:58 PM 63.0 °F 55.4 °F 76% 29.65 in 10.0 mi ESE 13.8 mph - 0.00 in   Partly Cloudy
2:29 PM 62.6 °F 55.4 °F 77% 29.65 in 10.0 mi ESE 11.5 mph - N/A   Light Drizzle
2:58 PM 60.8 °F 57.2 °F 88% 29.66 in 10.0 mi ESE 8.1 mph - 0.00 in Rain Light Rain
3:03 PM 60.8 °F 57.2 °F 88% 29.66 in 10.0 mi ESE 6.9 mph - N/A Rain Light Rain
3:13 PM 60.8 °F 57.2 °F 88% 29.66 in 10.0 mi ESE 6.9 mph - N/A Rain Light Rain
3:28 PM 60.8 °F 59.0 °F 94% 29.66 in 10.0 mi ESE 5.8 mph - N/A Rain Light Rain
3:58 PM 61.3 °F 58.8 °F 91% 29.67 in 10.0 mi East 5.8 mph - 0.03 in   Light Drizzle
5:38 PM 60.8 °F 59.0 °F 94% 29.70 in 10.0 mi East 3.5 mph - N/A Rain Light Rain
5:58 PM 60.3 °F 58.8 °F 95% 29.71 in 10.0 mi SE 4.6 mph - 0.02 in   Light Drizzle
6:07 PM 60.8 °F 59.0 °F 94% 29.71 in 10.0 mi SE 2.3 mph - N/A   Overcast
6:32 PM 60.8 °F 57.2 °F 88% 29.71 in 10.0 mi SE 5.8 mph - N/A   Mostly Cloudy
6:58 PM 59.9 °F 57.6 °F 92% 29.71 in 10.0 mi SSE 5.8 mph - 0.00 in   Mostly Cloudy
7:08 PM 60.8 °F 57.2 °F 88% 29.71 in 10.0 mi SE 4.6 mph - N/A   Mostly Cloudy
7:58 PM 60.3 °F 56.1 °F 86% 29.73 in 10.0 mi Calm Calm - N/A   Overcast
8:35 PM 59.0 °F 59.0 °F 100% 29.74 in 10.0 mi NNE 3.5 mph - N/A   Overcast
8:45 PM 59.0 °F 59.0 °F 100% 29.74 in 10.0 mi North 4.6 mph - N/A   Mostly Cloudy
8:58 PM 58.8 °F 58.8 °F 100% 29.74 in 10.0 mi NNE 4.6 mph - N/A   Mostly Cloudy
9:57 PM 57.2 °F 48.2 °F 72% 29.75 in 10.0 mi Variable 2.3 mph - N/A   Partly Cloudy
10:58 PM 51.6 °F 51.6 °F 100% 29.76 in 10.0 mi Calm Calm - N/A   Clear
11:58 PM 50.7 °F 50.7 °F 100% 29.76 in 10.0 mi Calm Calm - N/A   Clear